STARLINK-4728, 53793

Orbit data source: Space-Track

STARLINK-4728, 53793 is a payload satellite owned by SpaceX/Seattle (US) in LEO that was launched on Sun, 11 Sep 2022 UTC via an FALCON 9 launch vehicle from the Air Force Eastern Test Range (AFETR). Payload-class satellites include a variety of spacecraft equipped with specific instruments for various scientific and technological missions. These include communications satellites like Starlink; space stations such as the ISS; scientific satellites like the Hubble; Earth observation satellites from companies like Planet Labs, Umbra, and HawkEye 360; GPS; miniature CubeSats for education and research; and military/defense satellites.

Loading next visibility...
Identifier
53793, 2022-111W
Orbit
LEO
Country
Flag of USUS
Related business
Manufacturer
SpaceX/Seattle
Mission
Operational Commercial Communications
Bus & Motor
STARLINK, Unknown motor
Mass
305 kg wet, ~290 kg dry
Launch date (UTC)
2022-09-11 (3 years ago)
Launch vehicle
FALCON 9
Launch site
Air Force Eastern Test Range (AFETR)
Object type
Payload
Rocket body
Debris
Shape & HBR
Box + 1 Pan, 10.1 m
Radar Cross Section
13.562 m², Large (>1 m²)

Expand to show TLE details & history
Last TLE update: 11 hours ago

TLE from 11 hours ago
0 STARLINK-4728
1 53793U 22111W   25286.53524753 -.00005708  00000-0 -34117-3 0  9992
2 53793  53.2186 214.5182 0001732  87.4299 272.6892 15.08801714171470
Epoch: 2025-10-13T12:50Z
TLE epoch observation values (Epoch: 2025-10-13T12:50:45.386Z)
Latitude
0.00002°
Longitude
-0.50753°
Altitude
540.702 km
Speed
7.593 km/s
True Right ascension
14h 18m 04s
True Declination
0° 00' 00"
Sunlit
Object was in daylight at epoch
Visualization orbit readout
Latitude
Unknown
Longitude
Unknown
Altitude
Unknown
Speed
Unknown
Apparent Right ascension
Unknown
Apparent Declination
Unknown
Sunlit
N/A
Visualization observer readout
Local Sidereal Time
18:49:02
Azimuth
Unknown
Elevation
Unknown
Doppler factor
Unknown
Orbital elements
Apogee altitude
541.303 km
Perigee altitude
538.907 km
Semi-major axis
6,918.242 km
Eccentricity
0.00017
Inclination
53.2186°
RAAN
214.5182°
Arg. of periapsis
87.4299°
True anomaly
272.66937°
Mean anomaly
272.6892°
Eccentric anomaly
272.67929°
Mean motion
3.77181 °/min
Orbital period
95.44 mins
BSTAR
-0.00034117
Loading maneuver chart data...
Computing Atmospheric mass density...
Loading historical data...
Loading historical data...
Loading historical data...
Loading historical data...
Loading historical data...
Loading historical data...
Loading historical data...

Documentation

Showing up to 5 results
|